Location: Northcutt
(34.7304°N, 84.4305°W)
Time: 04:54:21
(UTC+00:00)

Vanguard 2 - Pass Details

Date: 10 October 2022
Orbit: 553 x 2933 km, 32.9° (Epoch: 04 December)

Event Time Altitude Azimuth Distance (km) Brightness Sun altitude
Rises 23:06:47 0° 280° (W) 5,793 13.7 -0.3°
Reaches altitude 10° 23:10:49 10° 271° (W) 5,073 13.7 -1.1°
Maximum altitude 23:23:46 33° 216° (SW) 4,068 11.7 -3.8°
Drops below altitude 10° 23:38:22 10° 161° (SSE) 5,675 11.8 -6.8°
Sets 23:43:20 0° 152° (SSE) 6,540 12.0 -7.8°
